Flag for Germany Weather past 2 weeks in Leutkirch im Allgäu, Baden-Württemberg, Germany

Now
37 °F

Overcast.


Feels Like: 32 °F
Forecast: 32 / 38 °F
Wind: 6 mph from West

Location: Kempten

Current Time: Dec 20, 2014 at 7:58:52 PM

Latest Report: Dec 20, 2014 at 7:00 PM


Visibility: 28 mi

Pressure: 30.37 "Hg

Humidity: 73%

Dew point: 29 °F

Location of Leutkirch im AllgäuLocation

Historic Weather in Leutkirch im Allgäu — Graph

°F

Leutkirch im Allgäu temperature yesterday

Maximum temperature yesterday: 53 °F (at 2:00 PM)
Minimum temperature yesterday: 44 °F (at 11:00 PM)
Average temperature yesterday: 49 °F

Past Weeks' High & Low Weather Summary

 TemperatureHumidityPressure
High53 °F (Dec 19, 2:00 PM)98% (Dec 6, 7:00 AM)30.50 "Hg (Dec 6, 7:00 AM)
Low24 °F (Dec 10, 7:00 AM)47% (Dec 13, 2:00 PM)29.84 "Hg (Dec 12, 9:00 PM)
Average39 °F82%30.12 "Hg
* Reported Dec 5 6:00 PM — Dec 20 6:00 PM, Leutkirch im Allgäu, Weather by CustomWeather, © 2014

Note: Actual official high and low records may vary slightly from our data, if they occured in-between our weather recording intervals... More about our weather records

Advertising

Leutkirch im Allgäu weather history for previous 24 hours

 ConditionsComfort  
Time TempWeatherWind HumidityBarometerVisibility
6:00 PM
Dec 20
38 °FOvercast.6 mph73%30.33 "Hg34 mi
5:00 PM38 °FOvercast.5 mph79%30.30 "Hg22 mi
4:00 PM40 °FOvercast.5 mph81%30.28 "Hg28 mi
3:00 PM40 °FOvercast.3 mph82%30.28 "Hg34 mi
2:00 PM40 °FOvercast.5 mph84%30.29 "Hg25 mi
1:00 PM40 °FOvercast.6 mph84%30.31 "Hg28 mi
12:00 PM41 °FOvercast.6 mph85%30.32 "Hg34 mi
11:00 AM42 °FOvercast.5 mph83%30.33 "Hg37 mi
9:00 AM44 °FOvercast.5 mph80%30.32 "Hg43 mi
8:00 AM44 °FOvercast.5 mph82%30.31 "Hg43 mi
7:00 AM44 °FDrizzle. Overcast.3 mph82%30.30 "Hg40 mi
6:00 AM44 °FLight freezing rain. Overcast.2 mph88%30.28 "Hg15 mi
5:00 AM45 °FOvercast.2 mph87%30.27 "Hg43 mi
3:00 AM45 °FDrizzle. Overcast.6 mph90%30.26 "Hg3 mi
2:00 AM45 °FLight freezing rain. Overcast.5 mph91%30.24 "Hg8 mi
1:00 AM45 °FLight freezing rain. Overcast.5 mph93%30.22 "Hg6 mi
12:00 AM44 °FRain. Overcast.3 mph94%30.22 "Hg2 mi
11:00 PM
Dec 19
44 °FLight rain. Fog.8 mph91%30.20 "Hg4 mi
9:00 PM48 °FLight rain. Light fog.6 mph79%30.15 "Hg5 mi
8:00 PM50 °FOvercast.3 mph65%30.12 "Hg40 mi
7:00 PM50 °FOvercast.3 mph61%30.11 "Hg43 mi
Weather by CustomWeather, © 2014

See weather overviewHow to use our weather pages